Time,TemperatureF,DewpointF,PressureIn,WindDirection,WindDirectionDegrees,WindSpeedMPH,WindSpeedGustMPH,Humidity,HourlyPrecipIn,Conditions,Clouds,dailyrainin,SoftwareType,DateUTC
2013-02-09 00:01:00,58.0,54.0,30.12,ENE,75,2.0,5.0,87,0.00,,,0.00,,2013-02-09 06:01:00,
2013-02-09 00:11:00,58.0,54.0,30.12,ENE,75,2.0,5.0,87,0.00,,,0.00,,2013-02-09 06:11:00,
2013-02-09 00:21:00,57.0,53.0,30.11,NE,43,1.0,4.0,87,0.00,,,0.00,,2013-02-09 06:21:00,
2013-02-09 00:31:00,57.0,53.0,30.11,NNE,31,1.0,4.0,87,0.00,,,0.00,,2013-02-09 06:31:00,
2013-02-09 00:41:00,57.0,53.0,30.11,NNE,31,1.0,4.0,87,0.00,,,0.00,,2013-02-09 06:41:00,
2013-02-09 00:52:00,57.0,53.0,30.12,NE,43,0.0,3.0,88,0.00,,,0.00,,2013-02-09 06:52:00,
2013-02-09 01:01:00,56.0,52.0,30.12,NE,38,1.0,3.0,88,0.00,,,0.00,,2013-02-09 07:01:00,
2013-02-09 01:11:00,56.0,52.0,30.12,NE,38,1.0,3.0,88,0.00,,,0.00,,2013-02-09 07:11:00,
2013-02-09 01:21:00,56.0,52.0,30.12,NE,40,0.0,2.0,88,0.00,,,0.00,,2013-02-09 07:21:00,
2013-02-09 01:31:00,55.0,52.0,30.11,NE,55,1.0,3.0,88,0.00,,,0.00,,2013-02-09 07:31:00,
2013-02-09 01:42:00,55.0,52.0,30.11,NE,55,1.0,3.0,88,0.00,,,0.00,,2013-02-09 07:42:00,
2013-02-09 01:52:00,55.0,52.0,30.11,NE,40,1.0,3.0,89,0.00,,,0.00,,2013-02-09 07:52:00,
2013-02-09 02:01:00,55.0,52.0,30.11,NE,40,1.0,2.0,89,0.00,,,0.00,,2013-02-09 08:01:00,
2013-02-09 02:11:00,55.0,52.0,30.11,NE,40,1.0,2.0,89,0.00,,,0.00,,2013-02-09 08:11:00,
2013-02-09 02:21:00,55.0,52.0,30.11,NE,41,0.0,2.0,90,0.00,,,0.00,,2013-02-09 08:21:00,
2013-02-09 02:31:00,55.0,52.0,30.11,NE,46,1.0,2.0,90,0.00,,,0.00,,2013-02-09 08:31:00,
2013-02-09 02:42:00,55.0,52.0,30.11,NE,46,1.0,2.0,90,0.00,,,0.00,,2013-02-09 08:42:00,
2013-02-09 02:52:00,56.0,53.0,30.11,NE,55,1.0,4.0,90,0.00,,,0.00,,2013-02-09 08:52:00,
2013-02-09 03:02:00,56.0,53.0,30.11,NE,55,1.0,4.0,90,0.00,,,0.00,,2013-02-09 09:02:00,
2013-02-09 03:11:00,56.0,53.0,30.11,NE,55,1.0,4.0,90,0.00,,,0.00,,2013-02-09 09:11:00,
2013-02-09 03:21:00,56.0,53.0,30.11,NE,44,2.0,6.0,90,0.00,,,0.00,,2013-02-09 09:21:00,
2013-02-09 03:31:00,57.0,54.0,30.11,NNE,32,0.0,4.0,90,0.00,,,0.00,,2013-02-09 09:31:00,
2013-02-09 03:42:00,57.0,54.0,30.11,NNE,32,0.0,4.0,90,0.00,,,0.00,,2013-02-09 09:42:00,
2013-02-09 03:52:00,57.0,54.0,30.11,NE,51,2.0,4.0,90,0.00,,,0.00,,2013-02-09 09:52:00,
2013-02-09 04:01:00,57.0,54.0,30.11,NNE,29,1.0,4.0,90,0.00,,,0.00,,2013-02-09 10:01:00,
2013-02-09 04:11:00,57.0,54.0,30.11,NNE,29,1.0,4.0,90,0.00,,,0.00,,2013-02-09 10:11:00,
2013-02-09 04:21:00,57.0,54.0,30.10,NE,55,2.0,4.0,90,0.00,,,0.00,,2013-02-09 10:21:00,
2013-02-09 04:31:00,57.0,54.0,30.11,NE,52,2.0,4.0,90,0.00,,,0.00,,2013-02-09 10:31:00,
2013-02-09 04:41:00,57.0,54.0,30.11,NE,52,2.0,4.0,90,0.00,,,0.00,,2013-02-09 10:41:00,
2013-02-09 04:52:00,57.0,54.0,30.09,ENE,70,3.0,5.0,90,0.00,,,0.00,,2013-02-09 10:52:00,
2013-02-09 05:01:00,57.0,54.0,30.10,ENE,74,2.0,4.0,90,0.00,,,0.00,,2013-02-09 11:01:00,
2013-02-09 05:11:00,57.0,54.0,30.10,ENE,74,2.0,4.0,90,0.00,,,0.00,,2013-02-09 11:11:00,
2013-02-09 05:21:00,58.0,55.0,30.09,East,90,3.0,6.0,90,0.00,,,0.00,,2013-02-09 11:21:00,
2013-02-09 05:31:00,59.0,56.0,30.09,East,82,4.0,7.0,90,0.00,,,0.00,,2013-02-09 11:31:00,
2013-02-09 05:41:00,59.0,56.0,30.09,East,82,4.0,7.0,90,0.00,,,0.00,,2013-02-09 11:41:00,
2013-02-09 05:52:00,59.0,56.0,30.10,East,82,3.0,5.0,89,0.00,,,0.00,,2013-02-09 11:52:00,
2013-02-09 06:02:00,58.0,54.0,30.11,ENE,71,2.0,5.0,88,0.00,,,0.00,,2013-02-09 12:02:00,
2013-02-09 06:11:00,58.0,54.0,30.11,ENE,71,2.0,5.0,88,0.00,,,0.00,,2013-02-09 12:11:00,
2013-02-09 06:21:00,58.0,55.0,30.11,ENE,63,1.0,4.0,89,0.00,,,0.00,,2013-02-09 12:21:00,
2013-02-09 06:32:00,58.0,55.0,30.11,ENE,75,1.0,4.0,89,0.00,,,0.00,,2013-02-09 12:32:00,
2013-02-09 06:42:00,58.0,55.0,30.11,ENE,75,1.0,4.0,89,0.00,,,0.00,,2013-02-09 12:42:00,
2013-02-09 06:52:00,59.0,56.0,30.11,East,92,5.0,8.0,89,0.00,,,0.00,,2013-02-09 12:52:00,
2013-02-09 07:02:00,59.0,55.0,30.11,ESE,109,5.0,9.0,88,0.00,,,0.00,,2013-02-09 13:02:00,
2013-02-09 07:11:00,59.0,55.0,30.11,ESE,109,5.0,9.0,88,0.00,,,0.00,,2013-02-09 13:11:00,
2013-02-09 07:21:00,60.0,56.0,30.12,East,96,5.0,11.0,87,0.00,,,0.00,,2013-02-09 13:21:00,
2013-02-09 07:32:00,60.0,56.0,30.12,ESE,108,4.0,13.0,87,0.00,,,0.00,,2013-02-09 13:32:00,
2013-02-09 07:42:00,60.0,56.0,30.12,ESE,108,4.0,13.0,87,0.00,,,0.00,,2013-02-09 13:42:00,
2013-02-09 07:52:00,60.0,56.0,30.13,ENE,77,5.0,9.0,87,0.00,,,0.00,,2013-02-09 13:52:00,
2013-02-09 08:01:00,60.0,56.0,30.14,East,99,4.0,8.0,87,0.00,,,0.00,,2013-02-09 14:01:00,
2013-02-09 08:11:00,60.0,56.0,30.14,East,99,4.0,8.0,87,0.00,,,0.00,,2013-02-09 14:11:00,
2013-02-09 08:21:00,61.0,57.0,30.15,ESE,113,5.0,9.0,88,0.00,,,0.00,,2013-02-09 14:21:00,
2013-02-09 08:31:00,61.0,57.0,30.15,SE,124,6.0,9.0,87,0.00,,,0.00,,2013-02-09 14:31:00,
2013-02-09 08:41:00,61.0,57.0,30.15,SE,124,6.0,9.0,87,0.00,,,0.00,,2013-02-09 14:41:00,
2013-02-09 08:52:00,61.0,57.0,30.14,East,80,3.0,6.0,88,0.00,,,0.00,,2013-02-09 14:52:00,
2013-02-09 09:01:00,61.0,57.0,30.14,East,97,3.0,6.0,88,0.00,,,0.00,,2013-02-09 15:01:00,
2013-02-09 09:11:00,61.0,57.0,30.14,East,97,3.0,6.0,88,0.00,,,0.00,,2013-02-09 15:11:00,
2013-02-09 09:21:00,61.0,57.0,30.14,East,80,6.0,9.0,88,0.00,,,0.00,,2013-02-09 15:21:00,
2013-02-09 09:32:00,61.0,57.0,30.14,ESE,103,5.0,9.0,88,0.00,,,0.00,,2013-02-09 15:32:00,
2013-02-09 09:42:00,61.0,57.0,30.14,ESE,103,5.0,9.0,88,0.00,,,0.00,,2013-02-09 15:42:00,
2013-02-09 09:52:00,62.0,58.0,30.13,East,88,7.0,10.0,88,0.00,,,0.00,,2013-02-09 15:52:00,
2013-02-09 10:01:00,63.0,59.0,30.14,ESE,105,6.0,13.0,88,0.00,,,0.00,,2013-02-09 16:01:00,
2013-02-09 10:11:00,63.0,59.0,30.14,ESE,105,6.0,13.0,88,0.00,,,0.00,,2013-02-09 16:11:00,
2013-02-09 10:22:00,63.0,59.0,30.14,ESE,102,7.0,11.0,87,0.00,,,0.00,,2013-02-09 16:22:00,
2013-02-09 10:31:00,64.0,60.0,30.14,ESE,103,8.0,13.0,86,0.00,,,0.00,,2013-02-09 16:31:00,
2013-02-09 10:52:00,64.0,60.0,30.13,ENE,61,8.0,13.0,86,0.00,,,0.00,,2013-02-09 16:52:00,
2013-02-09 11:01:00,65.0,61.0,30.13,ESE,106,8.0,14.0,86,0.00,,,0.00,,2013-02-09 17:01:00,
2013-02-09 11:21:00,65.0,61.0,30.12,ESE,103,9.0,14.0,86,0.00,,,0.00,,2013-02-09 17:21:00,
2013-02-09 11:32:00,65.0,60.0,30.11,East,90,9.0,13.0,85,0.00,,,0.00,,2013-02-09 17:32:00,
2013-02-09 11:41:00,65.0,60.0,30.11,East,90,9.0,13.0,85,0.00,,,0.00,,2013-02-09 17:41:00,
2013-02-09 11:52:00,66.0,61.0,30.11,ENE,70,9.0,13.0,85,0.00,,,0.00,,2013-02-09 17:52:00,
2013-02-09 12:02:00,66.0,61.0,30.10,East,101,8.0,14.0,85,0.00,,,0.00,,2013-02-09 18:02:00,
2013-02-09 12:12:00,66.0,61.0,30.10,East,101,8.0,14.0,85,0.00,,,0.00,,2013-02-09 18:12:00,
2013-02-09 12:23:00,66.0,61.0,30.09,ESE,106,9.0,14.0,84,0.00,,,0.00,,2013-02-09 18:23:00,
2013-02-09 12:32:00,67.0,62.0,30.09,ESE,107,9.0,13.0,84,0.00,,,0.00,,2013-02-09 18:32:00,
2013-02-09 12:42:00,67.0,62.0,30.09,ESE,107,9.0,13.0,84,0.00,,,0.00,,2013-02-09 18:42:00,
2013-02-09 12:52:00,67.0,62.0,30.08,ESE,108,8.0,13.0,83,0.00,,,0.00,,2013-02-09 18:52:00,
2013-02-09 13:01:00,68.0,63.0,30.07,ESE,110,7.0,14.0,84,0.00,,,0.00,,2013-02-09 19:01:00,
2013-02-09 13:11:00,68.0,63.0,30.07,ESE,110,7.0,14.0,84,0.00,,,0.00,,2013-02-09 19:11:00,
2013-02-09 13:22:00,68.0,62.0,30.06,East,96,9.0,13.0,82,0.00,,,0.00,,2013-02-09 19:22:00,
2013-02-09 13:31:00,69.0,64.0,30.06,ESE,110,9.0,13.0,83,0.00,,,0.00,,2013-02-09 19:31:00,
2013-02-09 13:42:00,69.0,64.0,30.06,ESE,110,9.0,13.0,83,0.00,,,0.00,,2013-02-09 19:42:00,
2013-02-09 13:52:00,71.0,64.0,30.04,ESE,102,8.0,12.0,79,0.00,,,0.00,,2013-02-09 19:52:00,
2013-02-09 14:01:00,70.0,64.0,30.03,ESE,118,8.0,12.0,80,0.00,,,0.00,,2013-02-09 20:01:00,
2013-02-09 14:11:00,70.0,64.0,30.03,ESE,118,8.0,12.0,80,0.00,,,0.00,,2013-02-09 20:11:00,
2013-02-09 14:21:00,71.0,65.0,30.02,East,98,9.0,13.0,81,0.00,,,0.00,,2013-02-09 20:21:00,
2013-02-09 14:31:00,72.0,65.0,30.02,SE,135,11.0,19.0,78,0.00,,,0.00,,2013-02-09 20:31:00,
2013-02-09 14:42:00,72.0,65.0,30.02,SE,135,11.0,19.0,78,0.00,,,0.00,,2013-02-09 20:42:00,
2013-02-09 14:52:00,72.0,65.0,30.01,SE,127,9.0,16.0,79,0.00,,,0.00,,2013-02-09 20:52:00,
2013-02-09 15:02:00,71.0,65.0,30.01,ESE,105,10.0,16.0,80,0.00,,,0.00,,2013-02-09 21:02:00,
2013-02-09 15:11:00,71.0,65.0,30.01,ESE,105,10.0,16.0,80,0.00,,,0.00,,2013-02-09 21:11:00,
2013-02-09 15:21:00,71.0,65.0,29.99,ESE,105,7.0,15.0,80,0.00,,,0.00,,2013-02-09 21:21:00,
2013-02-09 15:31:00,71.0,65.0,29.99,SSE,156,7.0,15.0,80,0.00,,,0.00,,2013-02-09 21:31:00,
2013-02-09 15:41:00,71.0,65.0,29.99,SSE,156,7.0,15.0,80,0.00,,,0.00,,2013-02-09 21:41:00,
2013-02-09 15:52:00,71.0,65.0,29.98,ESE,115,8.0,12.0,81,0.00,,,0.00,,2013-02-09 21:52:00,
2013-02-09 16:01:00,72.0,65.0,29.98,ESE,105,9.0,14.0,80,0.00,,,0.00,,2013-02-09 22:01:00,
2013-02-09 16:11:00,72.0,65.0,29.98,ESE,105,9.0,14.0,80,0.00,,,0.00,,2013-02-09 22:11:00,
2013-02-09 16:21:00,72.0,65.0,29.98,ESE,107,8.0,11.0,79,0.00,,,0.00,,2013-02-09 22:21:00,
2013-02-09 16:32:00,72.0,65.0,29.98,ESE,105,7.0,12.0,80,0.00,,,0.00,,2013-02-09 22:32:00,
2013-02-09 16:42:00,72.0,65.0,29.98,ESE,105,7.0,12.0,80,0.00,,,0.00,,2013-02-09 22:42:00,
2013-02-09 16:52:00,73.0,65.0,29.98,ESE,111,6.0,16.0,77,0.00,,,0.00,,2013-02-09 22:52:00,
2013-02-09 17:01:00,73.0,66.0,29.98,ESE,112,7.0,16.0,78,0.00,,,0.00,,2013-02-09 23:01:00,
2013-02-09 17:11:00,73.0,66.0,29.98,ESE,112,7.0,16.0,78,0.00,,,0.00,,2013-02-09 23:11:00,
2013-02-09 17:21:00,72.0,66.0,29.97,SE,126,8.0,12.0,81,0.00,,,0.00,,2013-02-09 23:21:00,
2013-02-09 17:31:00,71.0,65.0,29.98,ESE,118,5.0,11.0,82,0.00,,,0.00,,2013-02-09 23:31:00,
2013-02-09 17:42:00,71.0,65.0,29.98,ESE,118,5.0,11.0,82,0.00,,,0.00,,2013-02-09 23:42:00,
2013-02-09 17:52:00,71.0,66.0,29.97,ESE,123,5.0,9.0,84,0.00,,,0.00,,2013-02-09 23:52:00,
2013-02-09 18:02:00,71.0,66.0,29.97,ESE,108,6.0,11.0,84,0.00,,,0.00,,2013-02-10 00:02:00,
2013-02-09 18:11:00,71.0,66.0,29.97,ESE,108,6.0,11.0,84,0.00,,,0.00,,2013-02-10 00:11:00,
2013-02-09 18:21:00,70.0,65.0,29.97,East,98,9.0,13.0,85,0.00,,,0.00,,2013-02-10 00:21:00,
2013-02-09 18:32:00,70.0,66.0,29.96,ESE,106,6.0,12.0,86,0.00,,,0.00,,2013-02-10 00:32:00,
2013-02-09 18:42:00,70.0,66.0,29.96,ESE,106,6.0,12.0,86,0.00,,,0.00,,2013-02-10 00:42:00,
2013-02-09 18:52:00,70.0,66.0,29.96,ESE,109,7.0,12.0,86,0.00,,,0.00,,2013-02-10 00:52:00,
2013-02-09 19:01:00,70.0,66.0,29.95,East,90,8.0,11.0,87,0.00,,,0.00,,2013-02-10 01:01:00,
2013-02-09 19:12:00,70.0,66.0,29.95,East,90,8.0,11.0,87,0.00,,,0.00,,2013-02-10 01:12:00,
2013-02-09 19:21:00,70.0,66.0,29.95,East,91,8.0,13.0,87,0.00,,,0.00,,2013-02-10 01:21:00,
2013-02-09 19:31:00,70.0,66.0,29.95,ESE,103,10.0,15.0,87,0.00,,,0.00,,2013-02-10 01:31:00,
2013-02-09 19:42:00,70.0,66.0,29.95,ESE,103,10.0,15.0,87,0.00,,,0.00,,2013-02-10 01:42:00,
2013-02-09 19:52:00,70.0,66.0,29.95,East,98,7.0,13.0,87,0.00,,,0.00,,2013-02-10 01:52:00,
2013-02-09 20:01:00,70.0,66.0,29.95,ESE,109,6.0,11.0,88,0.00,,,0.00,,2013-02-10 02:01:00,
2013-02-09 20:11:00,70.0,66.0,29.95,ESE,109,6.0,11.0,88,0.00,,,0.00,,2013-02-10 02:11:00,
2013-02-09 20:22:00,70.0,66.0,29.95,SE,126,8.0,14.0,88,0.00,,,0.00,,2013-02-10 02:22:00,
2013-02-09 20:32:00,70.0,66.0,29.95,ESE,115,8.0,16.0,87,0.00,,,0.00,,2013-02-10 02:32:00,
2013-02-09 20:42:00,70.0,66.0,29.95,ESE,115,8.0,16.0,87,0.00,,,0.00,,2013-02-10 02:42:00,
2013-02-09 20:52:00,70.0,66.0,29.96,ESE,115,8.0,13.0,88,0.00,,,0.00,,2013-02-10 02:52:00,
2013-02-09 21:01:00,70.0,66.0,29.96,East,97,9.0,13.0,88,0.00,,,0.00,,2013-02-10 03:01:00,
2013-02-09 21:11:00,70.0,66.0,29.96,East,97,9.0,13.0,88,0.00,,,0.00,,2013-02-10 03:11:00,
2013-02-09 21:21:00,70.0,66.0,29.96,ESE,108,7.0,10.0,88,0.00,,,0.00,,2013-02-10 03:21:00,
2013-02-09 21:32:00,70.0,67.0,29.96,East,101,7.0,10.0,89,0.00,,,0.00,,2013-02-10 03:32:00,
2013-02-09 21:41:00,70.0,67.0,29.96,East,101,7.0,10.0,89,0.00,,,0.00,,2013-02-10 03:41:00,
2013-02-09 21:52:00,70.0,67.0,29.96,SE,133,7.0,13.0,89,0.00,,,0.00,,2013-02-10 03:52:00,
2013-02-09 22:01:00,70.0,67.0,29.95,ESE,111,8.0,12.0,89,0.00,,,0.00,,2013-02-10 04:01:00,
2013-02-09 22:11:00,70.0,67.0,29.95,ESE,111,8.0,12.0,89,0.00,,,0.00,,2013-02-10 04:11:00,
2013-02-09 22:21:00,70.0,67.0,29.95,ESE,121,7.0,12.0,90,0.00,,,0.00,,2013-02-10 04:21:00,
2013-02-09 22:32:00,70.0,67.0,29.95,ESE,119,6.0,10.0,90,0.00,,,0.00,,2013-02-10 04:32:00,
2013-02-09 22:41:00,70.0,67.0,29.95,ESE,119,6.0,10.0,90,0.00,,,0.00,,2013-02-10 04:41:00,
2013-02-09 22:52:00,70.0,67.0,29.94,ESE,117,8.0,11.0,90,0.00,,,0.00,,2013-02-10 04:52:00,
2013-02-09 23:01:00,70.0,67.0,29.94,East,101,7.0,12.0,90,0.00,,,0.00,,2013-02-10 05:01:00,
2013-02-09 23:11:00,70.0,67.0,29.94,East,101,7.0,12.0,90,0.00,,,0.00,,2013-02-10 05:11:00,
2013-02-09 23:22:00,70.0,67.0,29.94,ESE,103,5.0,11.0,90,0.00,,,0.00,,2013-02-10 05:22:00,
2013-02-09 23:31:00,71.0,68.0,29.94,ESE,121,7.0,10.0,90,0.00,,,0.00,,2013-02-10 05:31:00,
2013-02-09 23:41:00,71.0,68.0,29.94,ESE,121,7.0,10.0,90,0.00,,,0.00,,2013-02-10 05:41:00,
2013-02-09 23:52:00,71.0,68.0,29.94,SE,136,5.0,10.0,90,0.00,,,0.00,,2013-02-10 05:52:00,